Copper Harbor, MI

8:03 PM EST on December 16, 2017 (GMT -0500)
Copper Harbor

Weather History for KP59 - October, 2013

Change the Weather History Date:

Tuesday, October 8, 2013

  Actual Average Record
Temperature  
Mean Temperature 54 °F -  
Max Temperature 64 °F 53 °F 82 °F (2011)
Min Temperature 44 °F 39 °F 28 °F (1996)
Degree Days  
Heating Degree Days 11    
Growing Degree Days 4 (Base 50)    
Moisture  
Dew Point 44 °F    
Average Humidity 70    
Maximum Humidity 93    
Minimum Humidity 50    
Precipitation  
Precipitation 0.00 in - - ()
Sea Level Pressure  
Sea Level Pressure 29.97 in    
Wind  
Wind Speed 8 mph (SW)    
Max Wind Speed 15 mph    
Max Gust Speed 32 mph    
Averages and records for this station are not official NWS values.
T = Trace of Precipitation, MM = Missing Value Source: NWS Daily Summary

Daily Weather History Graph

Daily Weather History Graph

Search for Another Location

Airport or City:

Trip Planner

Search our weather history database for the weather conditions in past years. The results will help you decide how hot, cold, wet, or windy it might be!

Date:

Astronomy

Oct. 08, 2013 Rise Set
Actual Time 8:00 AM EDT 7:16 PM EDT
Civil Twilight 7:29 AM EDT 7:47 PM EDT
Nautical Twilight 6:54 AM EDT 8:22 PM EDT
Astronomical Twilight 6:18 AM EDT 8:58 PM EDT
Moon 12:10 PM EDT (10/8) 9:36 PM EDT (10/8)
Length of Visible Light 12h 17m
Length of Day
11h 15m
Waxing Crescent, 16% of the Moon is Illuminated
Oct 8
Waxing Crescent
Oct 11
First Quarter
Oct 18
Full
Oct 26
Last Quarter
Nov 3
New

Hourly Weather History & Observations

Time (EDT) Temp. Windchill Dew Point Humidity Pressure Visibility Wind Dir Wind Speed Gust Speed Precip Events Conditions
12:51 AM 45.0 °F 41.2 °F 41.0 °F 86% 29.99 in - WSW 6.9 mph - N/A   Unknown
1:51 AM 44.1 °F 42.5 °F 42.1 °F 93% 30.01 in - WNW 3.5 mph - N/A   Unknown
2:51 AM 44.1 °F 42.5 °F 41.0 °F 89% 30.01 in - Variable 3.5 mph - N/A   Unknown
3:51 AM 45.0 °F 41.8 °F 41.0 °F 86% 30.01 in - WSW 5.8 mph - N/A   Unknown
4:51 AM 45.0 °F 40.6 °F 41.0 °F 86% 30.02 in - WSW 8.1 mph - N/A   Unknown
5:51 AM 45.0 °F 40.1 °F 39.9 °F 82% 30.02 in - SW 9.2 mph - N/A   Unknown
6:51 AM 44.1 °F 39.0 °F 39.9 °F 85% 30.03 in - WSW 9.2 mph - N/A   Unknown
7:51 AM 45.0 °F 40.6 °F 41.0 °F 86% 30.04 in - SW 8.1 mph - N/A   Unknown
8:51 AM 46.9 °F - 43.0 °F 86% 30.05 in - SW 6.9 mph - N/A   Unknown
9:51 AM 50.0 °F - 42.1 °F 74% 30.05 in - WSW 8.1 mph - N/A   Unknown
10:51 AM 52.0 °F - 43.0 °F 71% 30.04 in - SW 8.1 mph - N/A   Unknown
11:51 AM 55.9 °F - 43.0 °F 62% 30.02 in - WSW 9.2 mph 20.7 mph N/A   Unknown
12:51 PM 59.0 °F - 42.1 °F 53% 30.00 in - SW 10.4 mph 19.6 mph N/A   Unknown
1:51 PM 61.0 °F - 44.1 °F 54% 30.00 in - SW 10.4 mph 18.4 mph N/A   Unknown
2:51 PM 62.1 °F - 46.0 °F 56% 29.96 in - SSW 12.7 mph 23.0 mph N/A   Unknown
3:51 PM 64.0 °F - 46.9 °F 54% 29.94 in - SSW 6.9 mph 20.7 mph N/A   Unknown
4:51 PM 64.0 °F - 46.9 °F 54% 29.91 in - SSW 15.0 mph 26.5 mph N/A   Unknown
5:51 PM 64.9 °F - 46.0 °F 50% 29.89 in - SSW 15.0 mph 32.2 mph N/A   Unknown
6:51 PM 63.0 °F - 46.9 °F 56% 29.90 in - SSW 12.7 mph 23.0 mph N/A   Unknown
7:51 PM 63.0 °F - 48.0 °F 58% 29.89 in - SSW 15.0 mph 25.3 mph N/A   Unknown
8:51 PM 62.1 °F - 48.0 °F 60% 29.89 in - SW 13.8 mph 24.2 mph N/A   Unknown
9:51 PM 62.1 °F - 48.9 °F 62% 29.89 in - SW 13.8 mph 25.3 mph N/A   Unknown
10:51 PM 62.1 °F - 48.9 °F 62% 29.89 in - SW 11.5 mph 21.9 mph N/A   Unknown
11:51 PM 61.0 °F - 50.0 °F 67% 29.91 in - WSW 11.5 mph 21.9 mph N/A   Unknown